Terug naar catalogus

STARLINK-33844

ActiefCommunicatieVLEO
NORAD 63768·PAYLOAD·🇺🇸 United States

Gelanceerd Apr 29, 2025 vanaf Cape Canaveral Space Force Station

Loading…

Volgende Passages (komende 24 uur)

TLE

VersSource: CelesTrak SupGP

Epoch: Sep 15, 2026, 03:26 UTC

1 63768C 25089T   26258.14354167 -.00023922  00000+0 -86625-3 0  2585
2 63768  43.0009  55.0467 0001414 270.0722 137.9237 15.27597615    16

Volg STARLINK-33844 in realtime met AllMySat

Download on the App Store